Location: ?????
(44.4284°N, 135.2222°E)
Time: 05:03:54
(UTC+00:00)

Cosmos 1140 Rocket - Pass Details

Date: 19 May 2025
Orbit: 741 x 762 km, 74.1° (Epoch: 19 June)

Event Time Altitude Azimuth Distance (km) Brightness Sun altitude
Exits shadow 18:44:19 - 209° (SSW) 2,599 5.7 -7.2°
Reaches altitude 10° 18:45:08 10° 211° (SSW) 2,282 5.4 -7.1°
Maximum altitude 18:50:16 65° 293° (WNW) 833 3.6 -6.3°
Drops below altitude 10° 18:55:26 10° 15° (NNE) 2,285 6.8 -5.6°
Sets 18:57:49 0° 19° (NNE) 3,210 7.7 -5.2°
